| time (UTC) | temp C | wind direction | speed KPH | gust KPH | rain 1hr cm | rain 24hr cm | rain mn cm | humidity % | barometer mb |
| 20260906021002 | 21 | 156 | 0.0 | 3.2 | 0.00 | 0.00 | 0.00 | 59 | 1005.0 |
| 20260906020502 | 21 | 63 | 0.0 | 3.2 | 0.00 | 0.00 | 0.00 | 58 | 1005.0 |
| 20260906020002 | 21 | 49 | 0.0 | 1.6 | 0.00 | 0.00 | 0.00 | 58 | 1004.9 |
| 20260906015504 | 21 | 69 | 0.0 | 1.6 | 0.00 | 0.00 | 0.00 | 57 | 1004.7 |
| 20260906015002 | 21 | 63 | 0.0 | 1.6 | 0.00 | 0.00 | 0.00 | 57 | 1004.6 |
| 20260906014502 | 21 | 61 | 0.0 | 1.6 | 0.00 | 0.00 | 0.00 | 56 | 1004.6 |
| 20260906014045 | 21 | 84 | 0.0 | 1.6 | 0.00 | 0.00 | 0.00 | 56 | 1004.5 |
| 20260906013543 | 21 | 74 | 0.0 | 1.6 | 0.00 | 0.00 | 0.00 | 56 | 1004.4 |
| 20260906013043 | 22 | 27 | 0.0 | 1.6 | 0.00 | 0.00 | 0.00 | 57 | 1004.3 |
| 20260906012542 | 22 | 62 | 0.0 | 1.6 | 0.00 | 0.00 | 0.00 | 56 | 1004.3 |
| 20260906012043 | 22 | 68 | 0.0 | 1.6 | 0.00 | 0.00 | 0.00 | 56 | 1004.2 |
| 20260906011543 | 22 | 61 | 0.0 | 1.6 | 0.00 | 0.00 | 0.00 | 55 | 1004.1 |
| 20260906011030 | 22 | 73 | 0.0 | 0.0 | 0.00 | 0.00 | 0.00 | 54 | 1004.0 |
| 20260906010524 | 23 | 50 | 0.0 | 1.6 | 0.00 | 0.00 | 0.00 | 53 | 1004.0 |
| 20260906010024 | 23 | 59 | 0.0 | 1.6 | 0.00 | 0.00 | 0.00 | 52 | 1003.9 |
| 20260906005525 | 23 | 70 | 0.0 | 1.6 | 0.00 | 0.00 | 0.00 | 52 | 1003.7 |
| 20260906005024 | 23 | 76 | 0.0 | 1.6 | 0.00 | 0.00 | 0.00 | 51 | 1003.8 |
| 20260906004524 | 23 | 75 | 0.0 | 1.6 | 0.00 | 0.00 | 0.00 | 51 | 1003.7 |
| 20260906004006 | 24 | 62 | 0.0 | 1.6 | 0.00 | 0.00 | 0.00 | 50 | 1003.6 |
| 20260906003507 | 24 | 63 | 0.0 | 1.6 | 0.00 | 0.00 | 0.00 | 50 | 1003.5 |
| 20260906003008 | 25 | 68 | 0.0 | 1.6 | 0.00 | 0.00 | 0.00 | 48 | 1003.4 |
| 20260906002506 | 25 | 74 | 0.0 | 1.6 | 0.00 | 0.00 | 0.00 | 46 | 1003.3 |
| 20260906002006 | 25 | 77 | 0.0 | 1.6 | 0.00 | 0.00 | 0.00 | 44 | 1003.4 |
| 20260906001506 | 25 | 71 | 0.0 | 1.6 | 0.00 | 0.00 | 0.00 | 42 | 1003.4 |
| 20260906001048 | 26 | 74 | 0.0 | 1.6 | 0.00 | 0.00 | 0.00 | 41 | 1003.3 |
| 20260906000551 | 26 | 41 | 0.0 | 1.6 | 0.00 | 0.00 | 0.00 | 41 | 1003.2 |
| 20260906000048 | 26 | 69 | 0.0 | 1.6 | 0.00 | 0.00 | 0.00 | 40 | 1003.0 |
| 20260905235547 | 26 | 77 | 0.0 | 1.6 | 0.00 | 0.00 | 0.00 | 40 | 1003.1 |
| 20260905235048 | 26 | 56 | 0.0 | 1.6 | 0.00 | 0.00 | 0.00 | 39 | 1003.1 |
| 20260905234547 | 26 | 49 | 0.0 | 1.6 | 0.00 | 0.00 | 0.00 | 38 | 1003.0 |
| 20260905234032 | 26 | 67 | 0.0 | 1.6 | 0.00 | 0.00 | 0.00 | 35 | 1003.0 |
| 20260905233529 | 26 | 60 | 0.0 | 3.2 | 0.00 | 0.00 | 0.00 | 36 | 1003.1 |
| 20260905233032 | 27 | 72 | 0.0 | 1.6 | 0.00 | 0.00 | 0.00 | 36 | 1003.2 |
| 20260905232531 | 27 | 58 | 0.0 | 0.0 | 0.00 | 0.00 | 0.00 | 36 | 1003.1 |
| 20260905232029 | 27 | 74 | 0.0 | 1.6 | 0.00 | 0.00 | 0.00 | 35 | 1003.0 |
| 20260905231529 | 27 | 72 | 0.0 | 1.6 | 0.00 | 0.00 | 0.00 | 33 | 1003.0 |
| 20260905231009 | 27 | 65 | 0.0 | 3.2 | 0.00 | 0.00 | 0.00 | 33 | 1003.0 |
| 20260905230509 | 27 | 39 | 0.0 | 3.2 | 0.00 | 0.00 | 0.00 | 34 | 1003.0 |
| 20260905230012 | 27 | 58 | 0.0 | 0.0 | 0.00 | 0.00 | 0.00 | 32 | 1003.0 |
| 20260905225508 | 27 | 53 | 0.0 | 1.6 | 0.00 | 0.00 | 0.00 | 34 | 1003.2 |
| 20260905225007 | 27 | 109 | 0.0 | 1.6 | 0.00 | 0.00 | 0.00 | 32 | 1003.3 |
| 20260905224507 | 27 | 60 | 0.0 | 1.6 | 0.00 | 0.00 | 0.00 | 34 | 1003.4 |
| 20260905224107 | 27 | 67 | 0.0 | 1.6 | 0.00 | 0.00 | 0.00 | 34 | 1003.4 |
| 20260905223549 | 27 | 60 | 0.0 | 1.6 | 0.00 | 0.00 | 0.00 | 34 | 1003.4 |
| 20260905223049 | 27 | 44 | 0.0 | 3.2 | 0.00 | 0.00 | 0.00 | 34 | 1003.3 |
| 20260905222549 | 27 | 61 | 0.0 | 3.2 | 0.00 | 0.00 | 0.00 | 33 | 1003.1 |
| 20260905222048 | 27 | 67 | 0.0 | 4.8 | 0.00 | 0.00 | 0.00 | 33 | 1003.3 |
| 20260905221549 | 27 | 8 | 0.0 | 4.8 | 0.00 | 0.00 | 0.00 | 35 | 1003.3 |
| 20260905221046 | 27 | 76 | 0.0 | 1.6 | 0.00 | 0.00 | 0.00 | 35 | 1003.4 |
| 20260905220528 | 27 | 60 | 0.0 | 0.0 | 0.00 | 0.00 | 0.00 | 35 | 1003.4 |
| 20260905220029 | 27 | 277 | 0.0 | 1.6 | 0.00 | 0.00 | 0.00 | 38 | 1003.5 |
| 20260905215527 | 27 | 325 | 0.0 | 1.6 | 0.00 | 0.00 | 0.00 | 37 | 1003.5 |
| 20260905215027 | 27 | 75 | 0.0 | 1.6 | 0.00 | 0.00 | 0.00 | 35 | 1003.6 |
| 20260905214526 | 27 | 67 | 0.0 | 0.0 | 0.00 | 0.00 | 0.00 | 34 | 1003.6 |
| 20260905214025 | 27 | 53 | 0.0 | 1.6 | 0.00 | 0.00 | 0.00 | 37 | 1003.8 |
| 20260905213506 | 27 | 46 | 0.0 | 1.6 | 0.00 | 0.00 | 0.00 | 35 | 1003.8 |
| 20260905213006 | 27 | 58 | 0.0 | 1.6 | 0.00 | 0.00 | 0.00 | 35 | 1003.9 |
| 20260905212505 | 27 | 46 | 0.0 | 1.6 | 0.00 | 0.00 | 0.00 | 36 | 1004.0 |
| 20260905212003 | 27 | 259 | 0.0 | 1.6 | 0.00 | 0.00 | 0.00 | 38 | 1004.1 |
| 20260905211508 | 27 | 236 | 0.0 | 1.6 | 0.00 | 0.00 | 0.00 | 40 | 1004.1 |
| 20260905211002 | 27 | 256 | 0.0 | 1.6 | 0.00 | 0.00 | 0.00 | 40 | 1004.3 |
| 20260905210543 | 26 | 15 | 0.0 | 1.6 | 0.00 | 0.00 | 0.00 | 37 | 1004.4 |
| 20260905210100 | 26 | 76 | 0.0 | 1.6 | 0.00 | 0.00 | 0.00 | 40 | 1004.4 |
| 20260905205543 | 26 | 66 | 0.0 | 9.7 | 0.00 | 0.00 | 0.00 | 38 | 1004.5 |
| 20260905205043 | 26 | 45 | 1.6 | 9.7 | 0.00 | 0.00 | 0.00 | 38 | 1004.5 |
| 20260905204542 | 27 | 8 | 0.0 | 8.0 | 0.00 | 0.00 | 0.00 | 39 | 1004.6 |
| 20260905204044 | 27 | 356 | 0.0 | 0.0 | 0.00 | 0.00 | 0.00 | 38 | 1004.7 |
| 20260905203523 | 27 | 76 | 0.0 | 3.2 | 0.00 | 0.00 | 0.00 | 37 | 1004.9 |
| 20260905203028 | 27 | 354 | 0.0 | 3.2 | 0.00 | 0.00 | 0.00 | 38 | 1005.0 |
| 20260905202521 | 27 | 60 | 0.0 | 0.0 | 0.00 | 0.00 | 0.00 | 37 | 1005.2 |
| 20260905202020 | 27 | 68 | 0.0 | 3.2 | 0.00 | 0.00 | 0.00 | 40 | 1005.3 |
| 20260905201519 | 26 | 47 | 0.0 | 3.2 | 0.00 | 0.00 | 0.00 | 38 | 1005.4 |
| 20260905201018 | 27 | 51 | 0.0 | 1.6 | 0.00 | 0.00 | 0.00 | 38 | 1005.5 |
| 20260905200601 | 27 | 167 | 0.0 | 3.2 | 0.00 | 0.00 | 0.00 | 39 | 1005.6 |
| 20260905200130 | 27 | 228 | 0.0 | 3.2 | 0.00 | 0.00 | 0.00 | 42 | 1005.7 |
| 20260905195601 | 27 | 350 | 0.0 | 1.6 | 0.00 | 0.00 | 0.00 | 41 | 1005.8 |
| 20260905195056 | 26 | 131 | 0.0 | 3.2 | 0.00 | 0.00 | 0.00 | 42 | 1005.9 |
| 20260905194557 | 26 | 278 | 0.0 | 1.6 | 0.00 | 0.00 | 0.00 | 45 | 1006.0 |
| 20260905194054 | 25 | 53 | 0.0 | 1.6 | 0.00 | 0.00 | 0.00 | 40 | 1006.0 |
| 20260905193534 | 25 | 70 | 0.0 | 1.6 | 0.00 | 0.00 | 0.00 | 41 | 1006.2 |
| 20260905193034 | 25 | 60 | 0.0 | 1.6 | 0.00 | 0.00 | 0.00 | 40 | 1006.3 |
| 20260905192535 | 25 | 15 | 0.0 | 3.2 | 0.00 | 0.00 | 0.00 | 41 | 1006.4 |
| 20260905192033 | 26 | 29 | 0.0 | 3.2 | 0.00 | 0.00 | 0.00 | 39 | 1006.5 |
| 20260905191536 | 25 | 65 | 0.0 | 1.6 | 0.00 | 0.00 | 0.00 | 42 | 1006.6 |
| 20260905191031 | 25 | 67 | 0.0 | 1.6 | 0.00 | 0.00 | 0.00 | 40 | 1006.6 |
| 20260905190512 | 26 | 84 | 0.0 | 1.6 | 0.00 | 0.00 | 0.00 | 41 | 1006.7 |
| 20260905190012 | 26 | 109 | 0.0 | 1.6 | 0.00 | 0.00 | 0.00 | 44 | 1006.8 |
| 20260905185510 | 25 | 200 | 0.0 | 4.8 | 0.00 | 0.00 | 0.00 | 47 | 1006.8 |
| 20260905185008 | 25 | 127 | 0.0 | 4.8 | 0.00 | 0.00 | 0.00 | 46 | 1007.0 |
| 20260905184508 | 24 | 67 | 0.0 | 0.0 | 0.00 | 0.00 | 0.00 | 45 | 1007.0 |
| 20260905184007 | 24 | 67 | 0.0 | 0.0 | 0.00 | 0.00 | 0.00 | 48 | 1007.2 |
| 20260905183549 | 24 | 41 | 0.0 | 0.0 | 0.00 | 0.00 | 0.00 | 47 | 1007.3 |
| 20260905183049 | 24 | 15 | 0.0 | 1.6 | 0.00 | 0.00 | 0.00 | 47 | 1007.4 |
| 20260905182546 | 23 | 73 | 0.0 | 1.6 | 0.00 | 0.00 | 0.00 | 46 | 1007.6 |
| 20260905182046 | 23 | 56 | 0.0 | 1.6 | 0.00 | 0.00 | 0.00 | 48 | 1007.7 |
| 20260905181545 | 24 | 67 | 0.0 | 1.6 | 0.00 | 0.00 | 0.00 | 46 | 1007.8 |
| 20260905181043 | 24 | 256 | 0.0 | 0.0 | 0.00 | 0.00 | 0.00 | 52 | 1007.8 |
| 20260905180527 | 23 | 129 | 0.0 | 0.0 | 0.00 | 0.00 | 0.00 | 52 | 1007.9 |
| 20260905180023 | 23 | 127 | 0.0 | 0.0 | 0.00 | 0.00 | 0.00 | 58 | 1007.9 |
| 20260905175522 | 22 | 66 | 0.0 | 0.0 | 0.00 | 0.00 | 0.00 | 55 | 1007.9 |
| 20260905175021 | 22 | 55 | 0.0 | 1.6 | 0.00 | 0.00 | 0.00 | 56 | 1008.1 |
| 20260905174520 | 22 | 69 | 0.0 | 1.6 | 0.00 | 0.00 | 0.00 | 61 | 1008.2 |
| 20260905174020 | 22 | 57 | 0.0 | 0.0 | 0.00 | 0.00 | 0.00 | 59 | 1008.2 |
| 20260905173502 | 22 | 65 | 0.0 | 0.0 | 0.00 | 0.00 | 0.00 | 61 | 1008.3 |
| 20260905173101 | 22 | 17 | 0.0 | 0.0 | 0.00 | 0.00 | 0.00 | 62 | 1008.3 |
| 20260905172600 | 22 | 57 | 0.0 | 1.6 | 0.00 | 0.00 | 0.00 | 66 | 1008.2 |
| 20260905172058 | 22 | 6 | 0.0 | 1.6 | 0.00 | 0.00 | 0.00 | 68 | 1008.2 |
| 20260905171605 | 21 | 179 | 0.0 | 1.6 | 0.00 | 0.00 | 0.00 | 69 | 1008.2 |
| 20260905171055 | 21 | 58 | 0.0 | 1.6 | 0.00 | 0.00 | 0.00 | 69 | 1008.4 |
| 20260905170537 | 21 | 70 | 0.0 | 0.0 | 0.00 | 0.00 | 0.00 | 69 | 1008.6 |
| 20260905170036 | 21 | 224 | 0.0 | 0.0 | 0.00 | 0.00 | 0.00 | 72 | 1008.7 |
| 20260905165534 | 20 | 239 | 0.0 | 0.0 | 0.00 | 0.00 | 0.00 | 75 | 1008.7 |
| 20260905165033 | 20 | 142 | 0.0 | 0.0 | 0.00 | 0.00 | 0.00 | 75 | 1008.7 |
| 20260905164533 | 20 | 51 | 0.0 | 0.0 | 0.00 | 0.00 | 0.00 | 76 | 1008.8 |
| 20260905164029 | 19 | 53 | 0.0 | 0.0 | 0.00 | 0.00 | 0.00 | 76 | 1008.8 |
| 20260905163512 | 19 | 53 | 0.0 | 0.0 | 0.00 | 0.00 | 0.00 | 78 | 1008.9 |
| 20260905163011 | 19 | 69 | 0.0 | 0.0 | 0.00 | 0.00 | 0.00 | 78 | 1009.0 |
| 20260905162510 | 19 | 256 | 0.0 | 0.0 | 0.00 | 0.00 | 0.00 | 80 | 1009.0 |
| 20260905162013 | 18 | 250 | 0.0 | 0.0 | 0.00 | 0.00 | 0.00 | 81 | 1009.1 |
| 20260905161508 | 18 | 250 | 0.0 | 0.0 | 0.00 | 0.00 | 0.00 | 81 | 1009.1 |
| 20260905161007 | 18 | 43 | 0.0 | 0.0 | 0.00 | 0.00 | 0.00 | 83 | 1009.2 |
| 20260905160605 | 17 | 56 | 0.0 | 0.0 | 0.00 | 0.00 | 0.00 | 83 | 1009.3 |
| 20260905160051 | 17 | 11 | 0.0 | 0.0 | 0.00 | 0.00 | 0.00 | 84 | 1009.4 |
| 20260905155546 | 17 | 348 | 0.0 | 1.6 | 0.00 | 0.00 | 0.00 | 86 | 1009.4 |
| 20260905155044 | 17 | 61 | 0.0 | 1.6 | 0.00 | 0.00 | 0.00 | 86 | 1009.3 |
| 20260905154552 | 16 | 250 | 0.0 | 0.0 | 0.00 | 0.00 | 0.00 | 89 | 1009.4 |
| 20260905154046 | 16 | 250 | 0.0 | 0.0 | 0.00 | 0.00 | 0.00 | 88 | 1009.4 |
| 20260905153544 | 16 | 232 | 0.0 | 1.6 | 0.00 | 0.00 | 0.00 | 88 | 1009.3 |
| 20260905153028 | 16 | 151 | 0.0 | 0.0 | 0.00 | 0.00 | 0.00 | 89 | 1009.3 |
| 20260905152526 | 16 | 80 | 0.0 | 0.0 | 0.00 | 0.00 | 0.00 | 90 | 1009.3 |
| 20260905152026 | 16 | 11 | 0.0 | 0.0 | 0.00 | 0.00 | 0.00 | 90 | 1009.4 |
| 20260905151529 | 16 | 55 | 0.0 | 0.0 | 0.00 | 0.00 | 0.00 | 91 | 1009.5 |
| 20260905151026 | 16 | 37 | 0.0 | 0.0 | 0.00 | 0.00 | 0.00 | 91 | 1009.4 |
| 20260905150527 | 16 | 131 | 0.0 | 0.0 | 0.00 | 0.00 | 0.00 | 92 | 1009.4 |
| 20260905150008 | 15 | 129 | 0.0 | 0.0 | 0.00 | 0.00 | 0.00 | 93 | 1009.5 |
| 20260905145509 | 15 | 67 | 0.0 | 0.0 | 0.00 | 0.00 | 0.00 | 94 | 1009.4 |
| 20260905145008 | 15 | 67 | 0.0 | 0.0 | 0.00 | 0.00 | 0.00 | 94 | 1009.4 |
| 20260905144508 | 15 | 63 | 0.0 | 0.0 | 0.00 | 0.00 | 0.00 | 95 | 1009.5 |
| 20260905144007 | 15 | 64 | 0.0 | 0.0 | 0.00 | 0.00 | 0.00 | 95 | 1009.5 |
| 20260905143508 | 15 | 60 | 0.0 | 0.0 | 0.00 | 0.00 | 0.00 | 96 | 1009.4 |
| 20260905143056 | 15 | 60 | 0.0 | 0.0 | 0.00 | 0.00 | 0.00 | 96 | 1009.4 |
| 20260905142558 | 15 | 60 | 0.0 | 0.0 | 0.00 | 0.00 | 0.00 | 97 | 1009.4 |
| 20260905142055 | 15 | 46 | 0.0 | 0.0 | 0.00 | 0.00 | 0.00 | 97 | 1009.3 |
| 20260905141556 | 15 | 46 | 0.0 | 0.0 | 0.00 | 0.00 | 0.00 | 97 | 1009.3 |
| 20260905141054 | 14 | 46 | 0.0 | 0.0 | 0.00 | 0.00 | 0.00 | 98 | 1009.4 |
| 20260905140557 | 14 | 46 | 0.0 | 0.0 | 0.00 | 0.00 | 0.00 | 98 | 1009.3 |
| 20260905140054 | 14 | 69 | 0.0 | 0.0 | 0.00 | 0.00 | 0.00 | 98 | 1009.3 |
| 20260905135554 | 14 | 263 | 0.0 | 0.0 | 0.00 | 0.00 | 0.00 | 98 | 1009.1 |
| 20260905135054 | 14 | 263 | 0.0 | 0.0 | 0.00 | 0.00 | 0.00 | 98 | 1008.9 |
| 20260905134557 | 14 | 263 | 0.0 | 0.0 | 0.00 | 0.00 | 0.00 | 98 | 1009.0 |
| 20260905134054 | 14 | 263 | 0.0 | 0.0 | 0.00 | 0.00 | 0.00 | 98 | 1009.1 |
| 20260905133554 | 13 | 263 | 0.0 | 0.0 | 0.00 | 0.00 | 0.00 | 98 | 1009.2 |
| 20260905133053 | 13 | 263 | 0.0 | 0.0 | 0.00 | 0.00 | 0.00 | 98 | 1009.2 |
| 20260905132551 | -17 | 0.0 | 0.0 | 0.00 | 0.00 | 0.00 | 1009.2 | ||
| 20260905132050 | -17 | 0.0 | 0.0 | 0.00 | 0.00 | 0.00 | 1009.0 | ||
| 20260905131548 | -17 | 0.0 | 0.0 | 0.00 | 0.00 | 0.00 | 1009.1 | ||
| 20260905131047 | -17 | 0.0 | 0.0 | 0.00 | 0.00 | 0.00 | 1009.0 | ||
| 20260905130548 | -17 | 0.0 | 0.0 | 0.00 | 0.00 | 0.00 | 1008.9 | ||
| 20260905130043 | -17 | 0.0 | 0.0 | 0.00 | 0.00 | 0.00 | 1008.7 | ||
| 20260905125544 | -17 | 0.0 | 0.0 | 0.00 | 0.00 | 0.00 | 1008.7 | ||
| 20260905125041 | -17 | 0.0 | 0.0 | 0.00 | 0.00 | 0.00 | 1008.5 | ||
| 20260905124547 | -17 | 0.0 | 0.0 | 0.00 | 0.00 | 0.00 | 1008.3 | ||
| 20260905124038 | -17 | 0.0 | 0.0 | 0.00 | 0.00 | 0.00 | 1008.4 | ||
| 20260905123537 | -17 | 0.0 | 0.0 | 0.00 | 0.00 | 0.00 | 1008.2 | ||
| 20260905123018 | -17 | 0.0 | 0.0 | 0.00 | 0.00 | 0.00 | 1008.0 | ||
| 20260905122523 | -17 | 0.0 | 0.0 | 0.00 | 0.00 | 0.00 | 1007.9 | ||
| 20260905122015 | -17 | 0.0 | 0.0 | 0.00 | 0.00 | 0.00 | 1008.1 | ||
| 20260905121515 | -17 | 0.0 | 0.0 | 0.00 | 0.00 | 0.00 | 1008.0 | ||
| 20260905121012 | -17 | 0.0 | 0.0 | 0.00 | 0.00 | 0.00 | 1007.9 | ||
| 20260905120510 | -17 | 0.0 | 0.0 | 0.00 | 0.00 | 0.00 | 1007.9 | ||
| 20260905120054 | -17 | 0.0 | 0.0 | 0.00 | 0.00 | 0.00 | 1007.8 | ||
| 20260905115551 | -17 | 0.0 | 0.0 | 0.00 | 0.00 | 0.00 | 1007.7 | ||
| 20260905115049 | -17 | 0.0 | 0.0 | 0.00 | 0.00 | 0.00 | 1007.7 | ||
| 20260905114604 | -17 | 0.0 | 0.0 | 0.00 | 0.00 | 0.00 | 1007.7 | ||
| 20260905114046 | -17 | 0.0 | 0.0 | 0.00 | 0.00 | 0.00 | 1007.6 | ||
| 20260905113545 | -17 | 0.0 | 0.0 | 0.00 | 0.00 | 0.00 | 1007.5 | ||
| 20260905113027 | -17 | 0.0 | 0.0 | 0.00 | 0.00 | 0.00 | 1007.3 | ||
| 20260905112525 | -17 | 0.0 | 0.0 | 0.00 | 0.00 | 0.00 | 1007.4 | ||
| 20260905112024 | -17 | 0.0 | 0.0 | 0.00 | 0.00 | 0.00 | 1007.5 | ||
| 20260905111521 | -17 | 0.0 | 0.0 | 0.00 | 0.00 | 0.00 | 1007.5 | ||
| 20260905111021 | -17 | 0.0 | 0.0 | 0.00 | 0.00 | 0.00 | 1007.6 | ||
| 20260905110520 | -17 | 0.0 | 0.0 | 0.00 | 0.00 | 0.00 | 1007.5 | ||
| 20260905105559 | -17 | 0.0 | 0.0 | 0.00 | 0.00 | 0.00 | 1007.5 | ||
| 20260905105058 | -17 | 0.0 | 0.0 | 0.00 | 0.00 | 0.00 | 1007.5 | ||
| 20260905104556 | -17 | 0.0 | 0.0 | 0.00 | 0.00 | 0.00 | 1007.4 | ||
| 20260905104056 | -17 | 0.0 | 0.0 | 0.00 | 0.00 | 0.00 | 1007.5 | ||
| 20260905103553 | -17 | 0.0 | 0.0 | 0.00 | 0.00 | 0.00 | 1007.4 | ||
| 20260905103045 | -17 | 0.0 | 0.0 | 0.00 | 0.00 | 0.00 | 1007.3 | ||
| 20260905102540 | -17 | 0.0 | 0.0 | 0.00 | 0.00 | 0.00 | 1007.2 | ||
| 20260905102037 | -17 | 0.0 | 0.0 | 0.00 | 0.00 | 0.00 | 1007.3 | ||
| 20260905101539 | -17 | 0.0 | 0.0 | 0.00 | 0.00 | 0.00 | 1007.2 | ||
| 20260905101034 | -17 | 0.0 | 0.0 | 0.00 | 0.00 | 0.00 | 1007.2 | ||
| 20260905100533 | -17 | 0.0 | 0.0 | 0.00 | 0.00 | 0.00 | 1007.3 | ||
| 20260905100031 | -17 | 0.0 | 0.0 | 0.00 | 0.00 | 0.00 | 1007.2 | ||
| 20260905095529 | -17 | 0.0 | 0.0 | 0.00 | 0.00 | 0.00 | 1007.3 | ||
| 20260905095029 | 13 | 65 | 0.0 | 0.0 | 0.00 | 0.00 | 0.00 | 92 | 1007.3 |
| 20260905094529 | 13 | 65 | 0.0 | 0.0 | 0.00 | 0.00 | 0.00 | 92 | 1007.4 |
| 20260905094030 | 13 | 65 | 0.0 | 0.0 | 0.00 | 0.00 | 0.00 | 93 | 1007.4 |
| 20260905093528 | 13 | 65 | 0.0 | 0.0 | 0.00 | 0.00 | 0.00 | 91 | 1007.4 |
| 20260905093026 | 14 | 65 | 0.0 | 0.0 | 0.00 | 0.00 | 0.00 | 91 | 1007.3 |
| 20260905092526 | 14 | 65 | 0.0 | 0.0 | 0.00 | 0.00 | 0.00 | 91 | 1007.2 |
| 20260905092024 | 14 | 63 | 0.0 | 0.0 | 0.00 | 0.00 | 0.00 | 91 | 1007.1 |
| 20260905091524 | 14 | 63 | 0.0 | 0.0 | 0.00 | 0.00 | 0.00 | 91 | 1007.2 |
| 20260905091026 | 14 | 63 | 0.0 | 0.0 | 0.00 | 0.00 | 0.00 | 90 | 1007.1 |
| 20260905090522 | 15 | 63 | 0.0 | 0.0 | 0.00 | 0.00 | 0.00 | 90 | 1007.1 |
| 20260905090023 | 15 | 64 | 0.0 | 0.0 | 0.00 | 0.00 | 0.00 | 91 | 1007.2 |
| 20260905085521 | 15 | 63 | 0.0 | 0.0 | 0.00 | 0.00 | 0.00 | 91 | 1007.2 |
| 20260905085023 | 15 | 64 | 0.0 | 0.0 | 0.00 | 0.00 | 0.00 | 91 | 1007.1 |
| 20260905084528 | 15 | 63 | 0.0 | 0.0 | 0.00 | 0.00 | 0.00 | 92 | 1007.1 |
| 20260905084021 | 15 | 63 | 0.0 | 0.0 | 0.00 | 0.00 | 0.00 | 92 | 1007.1 |
| 20260905083522 | 15 | 91 | 0.0 | 0.0 | 0.00 | 0.00 | 0.00 | 92 | 1007.1 |
| 20260905083020 | 15 | 91 | 0.0 | 0.0 | 0.00 | 0.00 | 0.00 | 92 | 1007.2 |
| 20260905082502 | 15 | 90 | 0.0 | 0.0 | 0.00 | 0.00 | 0.00 | 92 | 1007.1 |
| 20260905082002 | 15 | 90 | 0.0 | 0.0 | 0.00 | 0.00 | 0.00 | 91 | 1007.3 |
| 20260905081502 | 15 | 90 | 0.0 | 0.0 | 0.00 | 0.00 | 0.00 | 91 | 1007.3 |
| 20260905081100 | 15 | 90 | 0.0 | 0.0 | 0.00 | 0.00 | 0.00 | 90 | 1007.5 |
| 20260905080600 | 15 | 91 | 0.0 | 0.0 | 0.00 | 0.00 | 0.00 | 90 | 1007.6 |
| 20260905075542 | 15 | 91 | 0.0 | 0.0 | 0.00 | 0.00 | 0.00 | 89 | 1007.7 |
| 20260905075045 | 15 | 90 | 0.0 | 0.0 | 0.00 | 0.00 | 0.00 | 89 | 1007.7 |
| 20260905074541 | 15 | 215 | 0.0 | 0.0 | 0.00 | 0.00 | 0.00 | 89 | 1007.9 |
| 20260905074040 | 15 | 215 | 0.0 | 0.0 | 0.00 | 0.00 | 0.00 | 88 | 1007.8 |
| 20260905073543 | 15 | 215 | 0.0 | 0.0 | 0.00 | 0.00 | 0.00 | 88 | 1007.8 |
| 20260905073046 | 16 | 215 | 0.0 | 0.0 | 0.00 | 0.00 | 0.00 | 88 | 1007.8 |
| 20260905072523 | 16 | 217 | 0.0 | 0.0 | 0.00 | 0.00 | 0.00 | 88 | 1007.7 |
| 20260905072022 | 16 | 217 | 0.0 | 0.0 | 0.00 | 0.00 | 0.00 | 89 | 1007.8 |
| 20260905071522 | 15 | 217 | 0.0 | 0.0 | 0.00 | 0.00 | 0.00 | 88 | 1007.8 |
| 20260905071021 | 16 | 217 | 0.0 | 0.0 | 0.00 | 0.00 | 0.00 | 88 | 1007.9 |
| 20260905070520 | 16 | 217 | 0.0 | 0.0 | 0.00 | 0.00 | 0.00 | 87 | 1008.0 |
| 20260905070019 | 16 | 197 | 0.0 | 0.0 | 0.00 | 0.00 | 0.00 | 86 | 1008.2 |
| 20260905065503 | 16 | 196 | 0.0 | 0.0 | 0.00 | 0.00 | 0.00 | 86 | 1008.0 |
| 20260905065002 | 16 | 197 | 0.0 | 0.0 | 0.00 | 0.00 | 0.00 | 86 | 1007.9 |
| 20260905064502 | 16 | 197 | 0.0 | 0.0 | 0.00 | 0.00 | 0.00 | 86 | 1007.9 |
| 20260905064100 | 16 | 195 | 0.0 | 0.0 | 0.00 | 0.00 | 0.00 | 85 | 1007.9 |
| 20260905063559 | 16 | 197 | 0.0 | 0.0 | 0.00 | 0.00 | 0.00 | 85 | 1007.8 |
| 20260905063117 | 16 | 79 | 0.0 | 0.0 | 0.00 | 0.00 | 0.00 | 84 | 1007.8 |
| 20260905062549 | 16 | 77 | 0.0 | 0.0 | 0.00 | 0.00 | 0.00 | 84 | 1007.7 |
| 20260905062040 | 16 | 77 | 0.0 | 0.0 | 0.00 | 0.00 | 0.00 | 84 | 1007.7 |
| 20260905061601 | 16 | 76 | 0.0 | 0.0 | 0.00 | 0.00 | 0.00 | 84 | 1007.8 |
| 20260905061039 | 17 | 76 | 0.0 | 0.0 | 0.00 | 0.00 | 0.00 | 83 | 1007.7 |
| 20260905060538 | 17 | 77 | 0.0 | 0.0 | 0.00 | 0.00 | 0.00 | 82 | 1007.6 |
| 20260905060038 | 17 | 76 | 0.0 | 0.0 | 0.00 | 0.00 | 0.00 | 82 | 1007.8 |
| 20260905055519 | 17 | 77 | 0.0 | 0.0 | 0.00 | 0.00 | 0.00 | 82 | 1007.8 |
| 20260905055019 | 17 | 117 | 0.0 | 0.0 | 0.00 | 0.05 | 0.00 | 82 | 1007.9 |
| 20260905054520 | 17 | 117 | 0.0 | 0.0 | 0.00 | 0.05 | 0.00 | 81 | 1007.8 |
| 20260905054018 | 17 | 117 | 0.0 | 0.0 | 0.00 | 0.05 | 0.00 | 81 | 1007.8 |
| 20260905053518 | 17 | 117 | 0.0 | 0.0 | 0.00 | 0.05 | 0.00 | 80 | 1007.8 |
| 20260905053021 | 17 | 117 | 0.0 | 0.0 | 0.00 | 0.05 | 0.00 | 79 | 1007.9 |
| 20260905052501 | 17 | 117 | 0.0 | 0.0 | 0.00 | 0.05 | 0.00 | 79 | 1007.8 |
| 20260905052002 | 17 | 77 | 0.0 | 0.0 | 0.00 | 0.05 | 0.00 | 79 | 1007.8 |
| 20260905051601 | 17 | 77 | 0.0 | 0.0 | 0.00 | 0.05 | 0.00 | 78 | 1007.8 |
| 20260905051059 | 17 | 77 | 0.0 | 0.0 | 0.00 | 0.05 | 0.00 | 78 | 1007.9 |
| 20260905050600 | 18 | 77 | 0.0 | 0.0 | 0.00 | 0.05 | 0.00 | 77 | 1007.9 |
| 20260905050059 | 18 | 77 | 0.0 | 0.0 | 0.00 | 0.05 | 0.00 | 76 | 1007.8 |
| 20260905045539 | 18 | 77 | 0.0 | 0.0 | 0.00 | 0.05 | 0.00 | 76 | 1007.9 |
| 20260905045039 | 18 | 77 | 0.0 | 0.0 | 0.00 | 0.05 | 0.00 | 75 | 1007.8 |
| 20260905044539 | 18 | 84 | 0.0 | 0.0 | 0.00 | 0.05 | 0.00 | 75 | 1007.8 |
| 20260905044042 | 18 | 84 | 0.0 | 0.0 | 0.00 | 0.05 | 0.00 | 75 | 1007.8 |
| 20260905043538 | 18 | 83 | 0.0 | 0.0 | 0.00 | 0.05 | 0.00 | 74 | 1007.8 |
| 20260905043104 | 18 | 84 | 0.0 | 0.0 | 0.00 | 0.05 | 0.00 | 74 | 1007.8 |
| 20260905042524 | 18 | 84 | 0.0 | 0.0 | 0.00 | 0.05 | 0.00 | 74 | 1007.8 |
| 20260905042021 | 18 | 83 | 0.0 | 0.0 | 0.00 | 0.05 | 0.00 | 74 | 1007.8 |
| 20260905041518 | 18 | 68 | 0.0 | 1.6 | 0.00 | 0.05 | 0.00 | 73 | 1007.8 |
| 20260905041018 | 18 | 69 | 0.0 | 1.6 | 0.00 | 0.05 | 0.00 | 73 | 1007.7 |
| 20260905040517 | 18 | 51 | 0.0 | 1.6 | 0.00 | 0.05 | 0.00 | 72 | 1007.8 |
| 20260905040020 | 18 | 62 | 0.0 | 1.6 | 0.00 | 0.05 | 0.00 | 72 | 1007.7 |
| 20260905035558 | 18 | 70 | 0.0 | 1.6 | 0.00 | 0.05 | 0.00 | 71 | 1007.7 |
| 20260905035058 | 18 | 46 | 0.0 | 1.6 | 0.00 | 0.05 | 0.00 | 70 | 1007.5 |
| 20260905034600 | 18 | 64 | 0.0 | 1.6 | 0.00 | 0.13 | 0.00 | 70 | 1007.4 |
| 20260905034059 | 18 | 108 | 0.0 | 1.6 | 0.00 | 0.13 | 0.00 | 71 | 1007.5 |
| 20260905033557 | 18 | 68 | 0.0 | 1.6 | 0.00 | 0.13 | 0.00 | 71 | 1007.4 |
| 20260905033100 | 18 | 99 | 0.0 | 1.6 | 0.00 | 0.13 | 0.00 | 71 | 1007.4 |
| 20260905032540 | 19 | 68 | 0.0 | 1.6 | 0.00 | 0.13 | 0.00 | 70 | 1007.3 |
| 20260905032039 | 19 | 65 | 0.0 | 1.6 | 0.00 | 0.13 | 0.00 | 70 | 1007.2 |
| 20260905031540 | 19 | 82 | 0.0 | 1.6 | 0.00 | 0.13 | 0.00 | 69 | 1007.2 |
| 20260905031040 | 20 | 60 | 0.0 | 1.6 | 0.00 | 0.13 | 0.00 | 68 | 1007.1 |
| 20260905030539 | 20 | 72 | 0.0 | 1.6 | 0.00 | 0.13 | 0.00 | 68 | 1007.1 |
| 20260905030042 | 20 | 79 | 0.0 | 1.6 | 0.00 | 0.13 | 0.00 | 68 | 1007.0 |
| 20260905025522 | 20 | 16 | 0.0 | 1.6 | 0.00 | 0.13 | 0.00 | 68 | 1006.9 |
| 20260905025021 | 20 | 107 | 0.0 | 0.0 | 0.00 | 0.13 | 0.00 | 68 | 1006.8 |
| 20260905024522 | 20 | 53 | 0.0 | 0.0 | 0.00 | 0.13 | 0.00 | 68 | 1006.8 |
| 20260905024028 | 20 | 70 | 0.0 | 0.0 | 0.00 | 0.13 | 0.00 | 67 | 1006.8 |
| 20260905023521 | 20 | 63 | 0.0 | 0.0 | 0.00 | 0.13 | 0.00 | 66 | 1006.8 |
| 20260905023021 | 20 | 63 | 0.0 | 0.0 | 0.00 | 0.13 | 0.00 | 66 | 1006.5 |
| 20260905022512 | 21 | 91 | 0.0 | 0.0 | 0.00 | 0.13 | 0.00 | 66 | 1006.5 |
| 20260905022011 | 21 | 93 | 0.0 | 0.0 | 0.00 | 0.13 | 0.00 | 65 | 1006.5 |
| 20260905021510 | 21 | 68 | 0.0 | 0.0 | 0.00 | 0.13 | 0.00 | 65 | 1006.5 |